| time (UTC) | temp C | wind direction | speed KPH | gust KPH | rain 1hr cm | rain 24hr cm | rain mn cm | humidity % | barometer mb |
| 20260503215006 | 20 | 126 | 1.6 | 9.7 | 0.00 | 0.00 | 0.00 | 1017.5 | |
| 20260503214531 | 20 | 249 | 0.0 | 9.7 | 0.00 | 0.00 | 0.00 | 54 | 1017.5 |
| 20260503214009 | 20 | 168 | 0.0 | 6.4 | 0.00 | 0.00 | 0.00 | 54 | 1017.5 |
| 20260503213512 | 20 | 132 | 3.2 | 6.4 | 0.00 | 0.00 | 0.00 | 54 | 1017.5 |
| 20260503213031 | 20 | 163 | 1.6 | 6.4 | 0.00 | 0.00 | 0.00 | 54 | 1017.4 |
| 20260503212512 | 20 | 141 | 1.6 | 9.7 | 0.00 | 0.00 | 0.00 | 53 | 1017.5 |
| 20260503212009 | 20 | 360 | 3.2 | 9.7 | 0.00 | 0.00 | 0.00 | 52 | 1017.6 |
| 20260503211528 | 20 | 82 | 1.6 | 14.5 | 0.00 | 0.00 | 0.00 | 52 | 1017.6 |
| 20260503211004 | 21 | 119 | 4.8 | 14.5 | 0.00 | 0.00 | 0.00 | 50 | 1017.6 |
| 20260503210504 | 21 | 28 | 1.6 | 16.1 | 0.00 | 0.00 | 0.00 | 51 | 1017.7 |
| 20260503210037 | 21 | 88 | 4.8 | 16.1 | 0.00 | 0.00 | 0.00 | 49 | 1017.6 |
| 20260503205509 | 22 | 138 | 1.6 | 11.3 | 0.00 | 0.00 | 0.00 | 47 | 1017.7 |
| 20260503205007 | 22 | 137 | 1.6 | 4.8 | 0.00 | 0.00 | 0.00 | 45 | 1017.6 |
| 20260503204522 | 22 | 98 | 1.6 | 4.8 | 0.00 | 0.00 | 0.00 | 43 | 1017.7 |
| 20260503204008 | 22 | 92 | 1.6 | 4.8 | 0.00 | 0.00 | 0.00 | 44 | 1017.7 |
| 20260503203507 | 22 | 128 | 0.0 | 4.8 | 0.00 | 0.00 | 0.00 | 42 | 1017.6 |
| 20260503203029 | 22 | 243 | 0.0 | 3.2 | 0.00 | 0.00 | 0.00 | 41 | 1017.7 |
| 20260503202508 | 23 | 184 | 1.6 | 4.8 | 0.00 | 0.00 | 0.00 | 42 | 1017.8 |
| 20260503202013 | 23 | 140 | 1.6 | 4.8 | 0.00 | 0.00 | 0.00 | 40 | 1017.8 |
| 20260503201533 | 23 | 344 | 0.0 | 11.3 | 0.00 | 0.00 | 0.00 | 42 | 1017.8 |
| 20260503201008 | 23 | 314 | 4.8 | 11.3 | 0.00 | 0.00 | 0.00 | 44 | 1017.9 |
| 20260503200511 | 22 | 238 | 1.6 | 6.4 | 0.00 | 0.03 | 0.00 | 48 | 1017.9 |
| 20260503200018 | 22 | 118 | 1.6 | 3.2 | 0.00 | 0.03 | 0.00 | 43 | 1017.9 |
| 20260503195508 | 22 | 59 | 0.0 | 4.8 | 0.00 | 0.03 | 0.00 | 46 | 1018.0 |
| 20260503195005 | 22 | 339 | 1.6 | 4.8 | 0.00 | 0.03 | 0.00 | 44 | 1018.2 |
| 20260503194520 | 21 | 293 | 1.6 | 6.4 | 0.00 | 0.03 | 0.00 | 46 | 1018.4 |
| 20260503194008 | 21 | 233 | 1.6 | 6.4 | 0.00 | 0.03 | 0.00 | 45 | 1018.5 |
| 20260503193508 | 21 | 116 | 1.6 | 4.8 | 0.00 | 0.03 | 0.00 | 50 | 1018.6 |
| 20260503193025 | 21 | 80 | 0.0 | 3.2 | 0.00 | 0.03 | 0.00 | 50 | 1018.7 |
| 20260503192507 | 21 | 53 | 0.0 | 6.4 | 0.00 | 0.03 | 0.00 | 46 | 1018.8 |
| 20260503192010 | 22 | 312 | 3.2 | 11.3 | 0.00 | 0.03 | 0.00 | 41 | 1018.9 |
| 20260503191530 | 22 | 10 | 1.6 | 11.3 | 0.00 | 0.05 | 0.00 | 42 | 1019.1 |
| 20260503191014 | 22 | 183 | 4.8 | 11.3 | 0.00 | 0.08 | 0.00 | 43 | 1019.2 |
| 20260503190508 | 22 | 315 | 3.2 | 9.7 | 0.00 | 0.10 | 0.00 | 46 | 1019.1 |
| 20260503190039 | 22 | 63 | 3.2 | 9.7 | 0.00 | 0.10 | 0.00 | 47 | 1019.2 |
| 20260503185510 | 21 | 234 | 1.6 | 4.8 | 0.00 | 0.10 | 0.00 | 44 | 1019.2 |
| 20260503185008 | 21 | 295 | 3.2 | 3.2 | 0.00 | 0.10 | 0.00 | 44 | 1019.3 |
| 20260503184521 | 21 | 142 | 0.0 | 8.0 | 0.00 | 0.10 | 0.00 | 47 | 1019.4 |
| 20260503184011 | 21 | 234 | 1.6 | 8.0 | 0.00 | 0.10 | 0.00 | 48 | 1019.7 |
| 20260503183508 | 21 | 19 | 1.6 | 9.7 | 0.00 | 0.13 | 0.00 | 46 | 1019.7 |
| 20260503183024 | 21 | 291 | 1.6 | 9.7 | 0.00 | 0.15 | 0.00 | 45 | 1019.8 |
| 20260503182510 | 22 | 57 | 1.6 | 4.8 | 0.00 | 0.18 | 0.00 | 43 | 1019.8 |
| 20260503182010 | 22 | 49 | 1.6 | 4.8 | 0.00 | 0.23 | 0.00 | 46 | 1019.8 |
| 20260503181527 | 22 | 205 | 1.6 | 11.3 | 0.00 | 0.23 | 0.00 | 42 | 1019.9 |
| 20260503181010 | 22 | 280 | 3.2 | 11.3 | 0.00 | 0.23 | 0.00 | 44 | 1019.8 |
| 20260503180510 | 22 | 297 | 3.2 | 11.3 | 0.00 | 0.25 | 0.00 | 47 | 1019.9 |
| 20260503180029 | 22 | 258 | 0.0 | 11.3 | 0.00 | 0.25 | 0.00 | 43 | 1019.9 |
| 20260503175507 | 22 | 273 | 3.2 | 9.7 | 0.00 | 0.25 | 0.00 | 46 | 1019.9 |
| 20260503175013 | 21 | 189 | 1.6 | 9.7 | 0.00 | 0.28 | 0.00 | 46 | 1019.9 |
| 20260503174526 | 21 | 69 | 3.2 | 9.7 | 0.00 | 0.28 | 0.00 | 45 | 1020.0 |
| 20260503174006 | 21 | 294 | 1.6 | 12.9 | 0.00 | 0.28 | 0.00 | 47 | 1019.9 |
| 20260503173508 | 21 | 275 | 3.2 | 12.9 | 0.00 | 0.28 | 0.00 | 49 | 1020.0 |
| 20260503173024 | 21 | 265 | 1.6 | 12.9 | 0.00 | 0.30 | 0.00 | 46 | 1020.1 |
| 20260503172501 | 20 | 325 | 1.6 | 14.5 | 0.00 | 0.33 | 0.00 | 49 | 1020.2 |
| 20260503172006 | 21 | 360 | 1.6 | 14.5 | 0.00 | 0.33 | 0.00 | 45 | 1020.3 |
| 20260503171505 | 21 | 360 | 6.4 | 9.7 | 0.00 | 0.36 | 0.00 | 45 | 1020.2 |
| 20260503171003 | 20 | 326 | 0.0 | 6.4 | 0.00 | 0.41 | 0.00 | 48 | 1020.3 |
| 20260503170504 | 20 | 105 | 1.6 | 11.3 | 0.00 | 0.48 | 0.00 | 44 | 1020.3 |
| 20260503151006 | 18 | 98 | 4.8 | 11.3 | 0.00 | 0.74 | 0.00 | 55 | 1021.0 |
| 20260503150503 | 18 | 242 | 0.0 | 4.8 | 0.00 | 0.74 | 0.00 | 59 | 1020.9 |
| 20260503131007 | 13 | 105 | 1.6 | 4.8 | 0.00 | 1.42 | 0.00 | 96 | 1020.3 |
| 20260503130508 | 13 | 25 | 0.0 | 3.2 | 0.00 | 1.47 | 0.00 | 96 | 1020.4 |
| 20260503110506 | 7 | 308 | 0.0 | 0.0 | 0.00 | 1.83 | 0.00 | 94 | 1019.2 |
| 20260503090504 | 7 | 308 | 0.0 | 0.0 | 0.00 | 2.21 | 0.00 | 94 | 1017.8 |
| 20260503081543 | 8 | 308 | 0.0 | 0.0 | 0.00 | 2.34 | 0.00 | 94 | 1017.6 |
| 20260503081009 | 8 | 308 | 0.0 | 0.0 | 0.00 | 2.36 | 0.00 | 94 | 1017.6 |
| 20260503080510 | 8 | 308 | 0.0 | 0.0 | 0.00 | 2.39 | 0.00 | 94 | 1017.5 |
| 20260503072510 | 8 | 308 | 0.0 | 0.0 | 0.00 | 2.54 | 0.00 | 94 | 1017.1 |
| 20260503072009 | 8 | 308 | 0.0 | 0.0 | 0.00 | 2.54 | 0.00 | 94 | 1017.1 |
| 20260503071535 | 8 | 308 | 0.0 | 0.0 | 0.00 | 2.54 | 0.00 | 94 | 1017.1 |
| 20260503071009 | 9 | 308 | 0.0 | 0.0 | 0.00 | 2.57 | 0.00 | 94 | 1017.0 |
| 20260503070511 | 9 | 308 | 0.0 | 0.0 | 0.00 | 2.57 | 0.00 | 94 | 1017.0 |
| 20260503055008 | 10 | 308 | 0.0 | 0.0 | 0.00 | 2.64 | 0.00 | 94 | 1016.9 |
| 20260503054535 | 10 | 308 | 0.0 | 0.0 | 0.00 | 2.64 | 0.00 | 94 | 1016.9 |
| 20260503054008 | 10 | 308 | 0.0 | 0.0 | 0.00 | 2.64 | 0.00 | 94 | 1016.9 |
| 20260503053507 | 10 | 308 | 0.0 | 0.0 | 0.00 | 2.64 | 0.00 | 94 | 1016.9 |
| 20260503053019 | 10 | 308 | 0.0 | 0.0 | 0.00 | 2.64 | 0.00 | 93 | 1016.9 |
| 20260503052513 | 10 | 308 | 0.0 | 0.0 | 0.00 | 2.64 | 0.00 | 93 | 1016.9 |
| 20260503052009 | 10 | 308 | 0.0 | 0.0 | 0.00 | 2.64 | 0.00 | 93 | 1016.8 |
| 20260503051521 | 10 | 308 | 0.0 | 0.0 | 0.00 | 2.64 | 0.00 | 93 | 1016.7 |
| 20260503051009 | 10 | 308 | 0.0 | 0.0 | 0.00 | 2.64 | 0.00 | 93 | 1016.8 |
| 20260503050511 | 10 | 308 | 0.0 | 0.0 | 0.00 | 2.64 | 0.00 | 93 | 1016.8 |
| 20260503050026 | 10 | 308 | 0.0 | 0.0 | 0.00 | 2.64 | 0.00 | 93 | 1016.7 |
| 20260503045507 | 10 | 308 | 0.0 | 0.0 | 0.00 | 2.64 | 0.00 | 93 | 1016.6 |
| 20260503045007 | 10 | 308 | 0.0 | 0.0 | 0.00 | 2.64 | 0.00 | 93 | 1016.6 |
| 20260503044521 | 10 | 308 | 0.0 | 0.0 | 0.00 | 2.64 | 0.00 | 93 | 1016.6 |
| 20260503044003 | 11 | 308 | 0.0 | 0.0 | 0.00 | 2.64 | 0.00 | 93 | 1016.6 |
| 20260503043504 | 11 | 308 | 0.0 | 0.0 | 0.00 | 2.64 | 0.00 | 93 | 1016.5 |
| 20260503043014 | 11 | 308 | 0.0 | 0.0 | 0.00 | 2.64 | 0.00 | 93 | 1016.3 |
| 20260503042507 | 11 | 308 | 0.0 | 0.0 | 0.00 | 2.67 | 0.00 | 93 | 1016.2 |
| 20260503042007 | 11 | 308 | 0.0 | 0.0 | 0.00 | 2.67 | 0.00 | 93 | 1016.1 |
| 20260503041522 | 11 | 308 | 0.0 | 0.0 | 0.00 | 2.67 | 0.00 | 93 | 1016.1 |
| 20260503041007 | 11 | 308 | 0.0 | 0.0 | 0.00 | 2.67 | 0.00 | 93 | 1016.0 |
| 20260503040510 | 11 | 308 | 0.0 | 0.0 | 0.00 | 2.67 | 0.00 | 93 | 1016.1 |
| 20260503040023 | 11 | 308 | 0.0 | 0.0 | 0.00 | 2.67 | 0.00 | 93 | 1016.1 |
| 20260503035509 | 11 | 308 | 0.0 | 0.0 | 0.00 | 2.67 | 2.67 | 93 | 1015.9 |
| 20260503035014 | 11 | 308 | 0.0 | 0.0 | 0.00 | 2.67 | 2.67 | 93 | 1015.8 |
| 20260503034528 | 11 | 308 | 0.0 | 0.0 | 0.00 | 2.67 | 2.67 | 93 | 1015.8 |
| 20260503034008 | 11 | 308 | 0.0 | 0.0 | 0.00 | 2.67 | 2.67 | 93 | 1015.8 |
| 20260503033503 | 11 | 308 | 0.0 | 0.0 | 0.00 | 2.67 | 2.67 | 93 | 1015.8 |
| 20260503033012 | 12 | 308 | 0.0 | 1.6 | 0.00 | 2.67 | 2.67 | 93 | 1015.7 |
| 20260503032504 | 12 | 308 | 0.0 | 1.6 | 0.00 | 2.67 | 2.67 | 93 | 1015.7 |
| 20260503032007 | 12 | 296 | 0.0 | 3.2 | 0.00 | 2.67 | 2.67 | 93 | 1015.7 |
| 20260503031520 | 12 | 296 | 0.0 | 3.2 | 0.00 | 2.67 | 2.67 | 94 | 1015.6 |
| 20260503031008 | 12 | 296 | 0.0 | 3.2 | 0.00 | 2.67 | 2.67 | 94 | 1015.5 |
| 20260503030511 | 12 | 260 | 0.0 | 3.2 | 0.00 | 2.67 | 2.67 | 94 | 1015.4 |
| 20260503030023 | 12 | 281 | 0.0 | 3.2 | 0.00 | 2.67 | 2.67 | 94 | 1015.3 |
| 20260503025508 | 12 | 117 | 0.0 | 1.6 | 0.00 | 2.67 | 2.67 | 94 | 1015.2 |
| 20260503025009 | 12 | 98 | 0.0 | 0.0 | 0.00 | 2.67 | 2.67 | 94 | 1015.1 |
| 20260503024525 | 12 | 96 | 0.0 | 0.0 | 0.00 | 2.67 | 2.67 | 93 | 1014.9 |
| 20260503024010 | 12 | 97 | 0.0 | 0.0 | 0.00 | 2.67 | 2.67 | 93 | 1014.8 |
| 20260503023511 | 12 | 98 | 0.0 | 0.0 | 0.00 | 2.67 | 2.67 | 93 | 1014.8 |
| 20260503023030 | 12 | 99 | 0.0 | 1.6 | 0.00 | 2.67 | 2.67 | 93 | 1014.6 |
| 20260503022505 | 12 | 99 | 0.0 | 1.6 | 0.00 | 2.67 | 2.67 | 93 | 1014.5 |
| 20260503022010 | 12 | 92 | 0.0 | 3.2 | 0.00 | 2.67 | 2.67 | 93 | 1014.5 |
| 20260503021515 | 12 | 108 | 0.0 | 3.2 | 0.00 | 2.67 | 2.67 | 93 | 1014.4 |
| 20260503021008 | 12 | 108 | 0.0 | 3.2 | 0.00 | 2.67 | 2.67 | 94 | 1014.4 |
| 20260503020509 | 12 | 196 | 0.0 | 3.2 | 0.00 | 2.67 | 2.67 | 94 | 1014.3 |
| 20260503020022 | 12 | 223 | 0.0 | 0.0 | 0.00 | 2.67 | 2.67 | 93 | 1014.3 |
| 20260503015510 | 12 | 223 | 0.0 | 1.6 | 0.00 | 2.67 | 2.67 | 94 | 1014.0 |
| 20260503015009 | 12 | 223 | 0.0 | 1.6 | 0.00 | 2.67 | 2.67 | 93 | 1013.9 |
| 20260503014526 | 12 | 223 | 0.0 | 0.0 | 0.00 | 2.67 | 2.67 | 94 | 1013.8 |
| 20260503014009 | 12 | 223 | 0.0 | 1.6 | 0.00 | 2.67 | 2.67 | 93 | 1013.9 |
| 20260503013513 | 12 | 223 | 0.0 | 1.6 | 0.00 | 2.67 | 2.67 | 93 | 1013.7 |
| 20260503013035 | 12 | 223 | 0.0 | 0.0 | 0.00 | 2.67 | 2.67 | 93 | 1013.7 |
| 20260503012511 | 12 | 223 | 0.0 | 0.0 | 0.00 | 2.67 | 2.67 | 93 | 1013.7 |
| 20260503012014 | 12 | 223 | 0.0 | 3.2 | 0.00 | 2.67 | 2.67 | 93 | 1013.6 |
| 20260503011514 | 12 | 222 | 0.0 | 3.2 | 0.00 | 2.67 | 2.67 | 93 | 1013.6 |
| 20260503011005 | 12 | 87 | 0.0 | 3.2 | 0.00 | 2.67 | 2.67 | 93 | 1013.6 |
| 20260503010507 | 12 | 258 | 0.0 | 3.2 | 0.00 | 2.67 | 2.67 | 93 | 1013.6 |
| 20260503010019 | 12 | 258 | 0.0 | 3.2 | 0.00 | 2.67 | 2.67 | 93 | 1013.6 |
| 20260503005507 | 13 | 183 | 0.0 | 3.2 | 0.00 | 2.67 | 2.67 | 93 | 1013.6 |
| 20260503005008 | 13 | 188 | 0.0 | 3.2 | 0.00 | 2.67 | 2.67 | 93 | 1013.6 |
| 20260503004548 | 13 | 217 | 0.0 | 3.2 | 0.00 | 2.67 | 2.67 | 93 | 1013.6 |
| 20260503004009 | 13 | 219 | 0.0 | 3.2 | 0.00 | 2.67 | 2.67 | 94 | 1013.5 |
| 20260503003509 | 13 | 267 | 0.0 | 3.2 | 0.00 | 2.67 | 2.67 | 93 | 1013.3 |
| 20260503003024 | 13 | 232 | 0.0 | 3.2 | 0.00 | 2.67 | 2.67 | 94 | 1013.3 |
| 20260503002515 | 13 | 94 | 0.0 | 1.6 | 0.00 | 2.67 | 2.67 | 93 | 1013.2 |
| 20260503002012 | 13 | 94 | 0.0 | 1.6 | 0.00 | 2.67 | 2.67 | 93 | 1013.1 |
| 20260503001526 | 13 | 94 | 0.0 | 3.2 | 0.00 | 2.67 | 2.67 | 93 | 1013.1 |
| 20260503001014 | 13 | 94 | 0.0 | 3.2 | 0.00 | 2.67 | 2.67 | 93 | 1013.1 |
| 20260503000510 | 13 | 94 | 0.0 | 3.2 | 0.00 | 2.67 | 2.67 | 93 | 1013.0 |
| 20260503000019 | 13 | 90 | 0.0 | 3.2 | 0.00 | 2.67 | 2.67 | 93 | 1012.9 |
| 20260502235507 | 13 | 55 | 0.0 | 3.2 | 0.00 | 2.67 | 2.67 | 93 | 1012.8 |
| 20260502235006 | 13 | 61 | 0.0 | 3.2 | 0.00 | 2.67 | 2.67 | 93 | 1012.9 |
| 20260502234521 | 13 | 40 | 0.0 | 3.2 | 0.00 | 2.67 | 2.67 | 93 | 1012.8 |
| 20260502234011 | 13 | 102 | 0.0 | 3.2 | 0.00 | 2.67 | 2.67 | 93 | 1012.8 |
| 20260502233508 | 13 | 104 | 0.0 | 3.2 | 0.00 | 2.67 | 2.67 | 93 | 1012.9 |
| 20260502233024 | 13 | 137 | 0.0 | 3.2 | 0.00 | 2.67 | 2.67 | 93 | 1012.7 |
| 20260502232513 | 13 | 331 | 0.0 | 3.2 | 0.00 | 2.72 | 2.67 | 93 | 1012.5 |
| 20260502232003 | 13 | 149 | 0.0 | 3.2 | 0.00 | 2.72 | 2.67 | 93 | 1012.4 |
| 20260502231517 | 13 | 69 | 0.0 | 4.8 | 0.00 | 2.72 | 2.67 | 93 | 1012.4 |
| 20260502231004 | 13 | 99 | 1.6 | 4.8 | 0.00 | 2.72 | 2.67 | 93 | 1012.2 |
| 20260502230504 | 13 | 49 | 0.0 | 4.8 | 0.00 | 2.72 | 2.67 | 93 | 1012.3 |
| 20260502230014 | 13 | 146 | 0.0 | 3.2 | 0.00 | 2.74 | 2.67 | 93 | 1012.4 |
| 20260502225504 | 13 | 34 | 0.0 | 1.6 | 0.00 | 2.77 | 2.67 | 94 | 1012.3 |
| 20260502225008 | 13 | 34 | 0.0 | 3.2 | 0.00 | 2.77 | 2.67 | 93 | 1012.2 |
| 20260502224520 | 13 | 76 | 0.0 | 3.2 | 0.00 | 2.77 | 2.67 | 93 | 1012.2 |
| 20260502224007 | 13 | 108 | 0.0 | 4.8 | 0.00 | 2.77 | 2.67 | 93 | 1012.2 |
| 20260502223511 | 13 | 34 | 1.6 | 4.8 | 0.00 | 2.77 | 2.67 | 93 | 1012.2 |
| 20260502223026 | 13 | 176 | 1.6 | 4.8 | 0.00 | 2.77 | 2.67 | 93 | 1012.3 |
| 20260502222507 | 13 | 123 | 0.0 | 4.8 | 0.00 | 2.77 | 2.67 | 93 | 1012.2 |
| 20260502222007 | 13 | 200 | 1.6 | 4.8 | 0.00 | 2.77 | 2.67 | 93 | 1012.4 |
| 20260502221532 | 13 | 346 | 0.0 | 4.8 | 0.00 | 2.77 | 2.67 | 93 | 1012.2 |
| 20260502221012 | 13 | 63 | 0.0 | 4.8 | 0.00 | 2.77 | 2.67 | 93 | 1012.1 |
| 20260502220503 | 13 | 27 | 1.6 | 4.8 | 0.00 | 2.77 | 2.67 | 93 | 1012.1 |
| 20260502220014 | 13 | 261 | 0.0 | 6.4 | 0.00 | 2.77 | 2.67 | 93 | 1012.1 |
| 20260502215502 | 13 | 59 | 1.6 | 6.4 | 0.00 | 2.77 | 2.67 | 93 | 1012.1 |